Location: Poughquag
(41.6090°N, 73.6820°W)
Time: 16:18:35
(UTC-04:00)

Transit 2A - Visible Passes

Search period start: 25 September 2020 00:00
Search period end: 05 October 2020 00:00
Orbit: 592 x 967 km, 66.7° (Epoch: 24 September)

Date Brightness Start Highest point End Pass type
(mag) Time Alt. Az. Time Alt. Az. Time Alt. Az.
25 Sep 8.4 19:52:29 10° NW 19:57:07 25° WSW 20:01:25 10° SSW visible
26 Sep 7.9 19:17:53 10° NW 19:23:12 36° WSW 19:28:02 10° S visible
29 Sep 9.1 19:20:08 10° WNW 19:23:18 15° WSW 19:26:20 10° SW visible
04 Oct 9.4 05:59:52 10° SE 06:03:27 16° ESE 06:07:06 10° ENE visible
